This demonstration page uses our WeatherBlox Daily Observations layout. Learn more.

38.89511, -77.03637

Hourly Observations for September 29, 2020

Temp ( °F °C ) Dew Point ( °F °C ) Humidity (%) Winds ( mph kmh ) Pressure ( in mb ) Visibility ( mi km ) Precip ( " mm )
12:52 am 00:52 Partly Cloudy 72 22.2 68 20 87 87 S 9 15 29.86 1011 10 16.0934 0 0
1:52 am 01:52 Partly Cloudy 71 21.7 68 20 90 90 S 9 15 29.85 1011 10 16.0934 0 0
2:52 am 02:52 Cloudy 72 22.2 67 19.4 84 84 SSW 9 15 29.85 1011 10 16.0934 0 0
3:10 am 03:10 Mostly Cloudy 71 21.7 67 19.4 87 87 S 9 15 29.85 1011 10 16.0934 0 0
3:52 am 03:52 Partly Cloudy 70 21.1 67 19.4 90 90 S 8 13 29.84 1011 10 16.0934 0 0
4:35 am 04:35 Cloudy 70 21.1 68 20 93 93 S 13 20 29.84 1010 10 16.0934 0 0
4:52 am 04:52 Cloudy 70 21.1 67 19.4 90 90 S 10 17 29.84 1010 10 16.0934 0 0
5:05 am 05:05 Mostly Cloudy 70 21.1 67 19.4 90 90 S 12 19 29.84 1010 10 16.0934 0 0
5:29 am 05:29 Cloudy 71 21.7 67 19.4 87 87 S 12 19 29.83 1010 10 16.0934 0 0
5:52 am 05:52 Mostly Cloudy 71 21.7 67 19.4 87 87 S 13 20 29.83 1010 10 16.0934 0 0
6:17 am 06:17 Mostly Cloudy 70 21.1 67 19.4 90 90 S 15 24 29.84 1010 10 16.0934 0 0
6:52 am 06:52 Partly Cloudy 70 21.1 67 19.4 90 90 S 15 24 29.84 1011 10 16.0934 0 0
7:52 am 07:52 Mostly Cloudy 70 21.1 68 20 93 93 S 12 19 29.85 1011 10 16.0934 0 0
8:42 am 08:42 Mostly Cloudy 72 22.2 68 20 87 87 S 10 17 29.86 1011 10 16.0934 0 0
8:52 am 08:52 Mostly Cloudy 72 22.2 68 20 87 87 S 12 19 29.86 1011 10 16.0934 0 0
9:17 am 09:17 Mostly Cloudy 73 22.8 69 20.6 87 87 S 9 15 29.86 1011 10 16.0934 0 0
9:52 am 09:52 Mostly Cloudy 75 23.9 69 20.6 82 82 S 10 17 29.85 1011 10 16.0934 0 0
9:59 am 09:59 Mostly Cloudy 75 23.9 69 20.6 82 82 S 8 13 29.86 1011 10 16.0934 0 0
10:52 am 10:52 Mostly Cloudy 76 24.4 69 20.6 79 79 S 14 22 29.85 1011 10 16.0934 0 0
11:15 am 11:15 Cloudy 75 23.9 68 20 79 79 S 12 19 29.85 1011 10 16.0934 0 0
11:52 am 11:52 Mostly Cloudy 78 25.6 69 20.6 74 74 S 12 19 29.83 1010 10 16.0934 0 0
12:52 pm 12:52 Mostly Cloudy 78 25.6 67 19.4 69 69 S 13 20 29.82 1010 10 16.0934 0 0
1:52 pm 13:52 Mostly Cloudy 77 25 69 20.6 77 77 S 12 19 29.78 1009 10 16.0934 0 0
2:52 pm 14:52 Mostly Cloudy 79 26.1 68 20 69 69 S 10 17 29.75 1007 10 16.0934 0 0
3:52 pm 15:52 Mostly Cloudy 78 25.6 68 20 71 71 SSW 7 11 29.74 1007 10 16.0934 0 0
4:14 pm 16:14 Mostly Cloudy 77 25 65 18.3 66 66 NW 13 20 29.73 1007 10 16.0934 0 0
4:52 pm 16:52 Cloudy 72 22.2 61 16.1 68 68 WNW 15 24 29.73 1007 10 16.0934 0 0
5:52 pm 17:52 Mostly Cloudy with Light Rain 69 20.6 60 15.6 73 73 NW 13 20 29.72 1007 10 16.0934 0.001 0.001
5:55 pm 17:55 Mostly Cloudy with Light Rain 69 20.6 60 15.6 73 73 NNW 10 17 29.73 1007 10 16.0934 0.001 0.001
6:52 pm 18:52 Cloudy 68 20 59 15 73 73 NW 12 19 29.73 1007 10 16.0934 0.001 0.001
7:52 pm 19:52 Cloudy 64 17.8 58 14.4 81 81 NNW 16 26 29.72 1007 10 16.0934 0 0
8:52 pm 20:52 Cloudy 62 16.7 56 13.3 80 80 NW 16 26 29.73 1007 10 16.0934 0.001 0.001
9:52 pm 21:52 Cloudy with Light Rain 59 15 54 12.2 83 83 NNW 16 26 29.73 1007 10 16.0934 0.001 0.001
10:16 pm 22:16 Cloudy with Light Rain 58 14.4 54 12.2 87 87 WNW 9 15 29.75 1007 10 16.0934 0.02 0.508
10:52 pm 22:52 Cloudy with Light Rain 57 13.9 53 11.7 87 87 NNW 16 26 29.72 1006 7 11.26538 0.05 1.27
11:52 pm 23:52 Cloudy with Light Rain 57 13.9 54 12.2 90 90 NW 8 13 29.73 1007 9 14.48406 0.11 2.794

Powered by AerisWeather